View from above orbital plane
|
View from above satellite
|
Ground track
|
The orbit data is extracted from the following two-line orbital elements,
1 28057U 03049A 21015.81110882 -.00000036 00000-0 25016-5 0 9995
2 28057 98.4972 321.2561 0000441 37.6306 322.4911 14.35636905903272
Epoch (UTC): | 15 January 2021 19:27:59 |
Eccentricity: | 0.0000441 |
inclination: | 98.4972° |
perigee height: | 772 km |
apogee height: | 773 km |
right ascension of ascending node: | 321.2561° |
argument of perigee: | 37.6306° |
revolutions per day: | 14.35636905 |
mean anomaly at epoch: | 322.4911° |
orbit number at epoch: | 90327 |
The dashed part of the orbit path shows where the satellite is in the earth's shadow,
|
|